TimeEDT,TemperatureF,Dew PointF,Humidity,Sea Level PressureIn,VisibilityMPH,Wind Direction,Wind SpeedMPH,Gust SpeedMPH,PrecipitationIn,Events,Conditions,WindDirDegrees,DateUTC
12:53 AM,73.9,73.9,100,29.99,10.0,Calm,Calm,-,N/A,,Clear,0,2012-10-09 04:53:00
1:53 AM,73.9,73.0,97,29.97,10.0,Calm,Calm,-,N/A,,Clear,0,2012-10-09 05:53:00
2:53 AM,73.9,73.0,97,29.97,10.0,Calm,Calm,-,N/A,,Clear,0,2012-10-09 06:53:00
4:53 AM,73.9,73.9,100,29.96,10.0,NNE,3.5,-,N/A,,Clear,20,2012-10-09 08:53:00
5:53 AM,73.0,73.0,100,29.97,9.0,Calm,Calm,-,N/A,,Clear,0,2012-10-09 09:53:00
6:53 AM,73.0,73.0,100,29.98,10.0,NE,4.6,-,N/A,,Clear,40,2012-10-09 10:53:00
7:53 AM,73.9,73.0,97,29.99,10.0,NE,3.5,-,N/A,,Clear,50,2012-10-09 11:53:00
8:53 AM,77.0,75.0,94,30.01,10.0,East,4.6,-,N/A,,Clear,80,2012-10-09 12:53:00
9:53 AM,81.0,77.0,88,30.02,10.0,NE,4.6,-,N/A,,Clear,50,2012-10-09 13:53:00
10:53 AM,84.0,75.0,74,30.03,10.0,NNE,3.5,-,N/A,,Clear,30,2012-10-09 14:53:00
11:53 AM,84.9,75.9,74,30.02,10.0,Calm,Calm,-,N/A,,Scattered Clouds,0,2012-10-09 15:53:00
12:53 PM,86.0,73.0,65,30.00,10.0,North,4.6,-,N/A,,Partly Cloudy,10,2012-10-09 16:53:00
1:53 PM,87.1,73.0,63,29.99,10.0,North,3.5,-,N/A,,Mostly Cloudy,10,2012-10-09 17:53:00
2:53 PM,89.1,75.9,65,29.97,10.0,West,9.2,-,N/A,,Scattered Clouds,280,2012-10-09 18:53:00
3:53 PM,88.0,75.9,67,29.96,10.0,WNW,11.5,-,N/A,,Partly Cloudy,300,2012-10-09 19:53:00
4:53 PM,88.0,75.9,67,29.96,10.0,NW,10.4,-,N/A,,Partly Cloudy,310,2012-10-09 20:53:00
5:53 PM,86.0,77.0,74,29.96,10.0,WNW,9.2,-,N/A,,Mostly Cloudy,300,2012-10-09 21:53:00
6:53 PM,84.0,75.9,76,29.98,10.0,NNW,4.6,-,N/A,,Partly Cloudy,340,2012-10-09 22:53:00
7:53 PM,82.0,73.0,74,29.99,10.0,Calm,Calm,-,N/A,,Mostly Cloudy,0,2012-10-09 23:53:00
8:53 PM,79.0,75.0,88,29.99,10.0,South,4.6,-,N/A,,Scattered Clouds,170,2012-10-10 00:53:00
9:53 PM,79.0,73.9,84,30.02,10.0,Calm,Calm,-,N/A,,Scattered Clouds,0,2012-10-10 01:53:00
10:53 PM,79.0,73.9,84,30.02,10.0,Calm,Calm,-,N/A,,Clear,0,2012-10-10 02:53:00
11:53 PM,77.0,75.0,94,30.03,10.0,East,8.1,-,N/A,,Overcast,80,2012-10-10 03:53:00